Location: Newark
(13.0328°N, 9.6142°E)
Time: 17:45:35
(UTC+00:00)

OTV 5 (USA 277) - Pass Details

Date: 23 October 2019
Orbit: 310 x 324 km, 54.5° (Epoch: 17 October)

Event Time Altitude Azimuth Distance (km) Brightness Sun altitude
Exits shadow 04:18:46 - 352° (N) 1,829 ? -13.9°
Reaches altitude 10° 04:20:37 10° 13° (NNE) 1,218 ? -13.4°
Maximum altitude 04:22:22 16° 53° (NE) 951 ? -13.0°
Drops below altitude 10° 04:24:08 10° 94° (E) 1,214 ? -12.6°
Sets 04:26:34 0° 118° (ESE) 2,039 ? -12.0°
